カタログに戻る

KINEIS-4B

運用中通信SSO
NORAD 63304·PAYLOAD·🇫🇷 France

打ち上げ Mar 18, 2025 から Rocket Lab Launch Complex 1

Loading…

次のパス (今後24時間)

TLE

最新Source: Space-Track

元期: Sep 14, 2026, 14:01 UTC

1 63304U 25056E   26257.58409097  .00001071  00000-0  17726-3 0  9993
2 63304  97.9219  19.3404 0005806  25.2078 334.9412 14.72284580 80273

AllMySatでKINEIS-4Bをリアルタイム追跡

Download on the App Store